Location: Lachepaillet
(43.4918°N, 1.4874°W)
Time: 02:15:32
(UTC+00:00)

Cosmos 1725 Rocket - Pass Details

Date: 15 May 2026
Orbit: 960 x 991 km, 82.9° (Epoch: 8 June)

Event Time Altitude Azimuth Distance (km) Brightness Sun altitude
Rises 20:24:26 0° 191° (SSW) 3,675 6.7 -10.0°
Reaches altitude 10° 20:26:57 10° 193° (SSW) 2,727 6.1 -10.4°
Maximum altitude 20:33:12 74° 279° (W) 1,016 4.3 -11.3°
Drops below altitude 10° 20:39:27 10° 5° (N) 2,723 6.9 -12.1°
Sets 20:41:58 0° 7° (N) 3,670 7.5 -12.5°
